Theta_e
313 311 311 312 312 314 314 315 317 318 319 319 319 320 321 322 322 317 309 317 321 329 325 314 312 309 308 307 310 309 299 299 303 304 304 309 306 308 310 313 317 322 320 324 329
312 311 311 311 312 313 313 314 315 318 318 318 318 318 320 321 314 311 322 326 326 326 314 311 308 307 303 305 307 304 296 301 307 304 303 307 307 307 307 310 315 320 326 326 326
313 312 311 310 310 312 312 312 314 316 318 318 318 318 319 318 307 307 324 324 326 323 319 316 311 306 302 304 304 304 299 304 306 310 305 306 306 306 305 302 314 317 322 321 321
312 313 312 310 309 310 311 311 312 314 316 317 318 318 320 312 288 310 322 323 324 317 317 312 306 301 300 300 305 300 304 305 307 308 308 303 304 303 304 304 312 323 323 321 319
314 312 312 311 309 309 310 311 311 314 315 317 317 318 312 303 302 313 320 320 315 311 312 309 303 302 299 300 303 301 302 304 304 305 306 307 304 303 304 315 322 324 323 321 321
314 312 311 311 310 309 309 311 311 313 314 316 316 317 306 295 311 314 314 314 313 310 308 309 303 303 300 300 300 301 302 302 304 303 304 305 304 303 303 313 319 319 309 309 307
315 314 312 311 310 308 308 310 311 312 313 315 316 312 303 299 311 311 311 310 313 312 307 312 309 302 302 301 304 303 298 299 300 302 300 303 302 301 304 308 302 299 299 301 302
314 314 312 311 311 309 308 309 311 312 312 313 315 306 297 309 309 308 308 306 312 314 312 312 312 305 303 304 302 299 297 292 298 302 300 302 295 296 297 300 295 296 298 301 302
314 313 312 311 310 309 308 309 311 312 313 313 304 300 294 311 305 308 308 304 310 312 312 313 310 302 301 295 294 297 291 291 293 298 298 298 290 293 297 297 293 294 297 300 301
313 314 312 311 310 309 308 309 310 309 308 308 307 295 299 299 305 307 308 307 307 307 305 307 302 294 294 292 287 291 294 295 293 297 294 290 289 292 293 294 291 293 295 298 298
313 313 311 311 310 307 304 300 293 292 297 291 293 295 298 302 307 304 307 305 306 302 294 301 293 289 292 294 296 295 296 295 299 297 293 290 290 291 292 292 292 295 294 295 296
313 312 311 311 309 306 302 295 294 295 287 297 298 298 300 302 297 301 307 299 299 293 297 295 290 293 295 296 296 295 294 292 297 299 296 291 289 292 293 291 291 292 292 294 294
313 312 312 310 307 303 299 299 304 300 287 291 296 295 296 300 295 297 302 300 296 293 293 289 293 298 296 294 294 293 292 290 292 298 297 294 291 292 292 293 293 293 293 293 293
312 312 312 309 300 298 295 303 302 300 275 283 289 293 297 299 292 301 303 299 295 292 292 290 294 295 294 293 295 291 297 294 295 294 288 296 285 292 290 288 289 290 292 292 293
312 312 310 306 296 295 301 303 301 291 261 283 290 301 300 293 293 295 303 298 291 293 291 288 289 290 292 293 296 293 297 294 294 289 289 290 287 288 291 288 288 289 290 291 292
311 310 309 301 297 297 302 300 294 272 262 280 290 289 290 293 293 296 297 299 298 293 293 290 294 292 291 295 297 300 296 294 293 291 283 288 286 282 287 289 289 290 291 292 292
309 308 303 302 293 300 299 289 271 265 280 275 282 288 288 287 290 291 290 290 286 282 282 289 290 292 293 293 298 297 292 282 281 282 279 287 285 282 287 290 289 289 290 291 291
306 304 302 300 299 299 294 278 263 268 272 285 284 284 284 287 287 289 288 286 291 289 282 283 281 289 292 293 293 294 293 282 276 277 278 287 283 282 286 289 289 290 290 290 290
305 295 294 296 299 296 285 267 267 275 283 280 282 279 281 287 287 286 285 287 288 291 284 285 283 291 291 293 296 292 288 290 282 278 280 282 281 284 285 286 287 288 289 289 289
295 292 292 297 297 291 276 274 279 284 285 285 276 281 279 281 284 281 284 288 287 292 294 287 283 289 290 292 292 293 293 285 284 275 275 278 277 278 281 283 285 286 287 288 289
292 285 294 297 291 281 271 274 281 285 286 284 281 278 282 281 285 282 284 286 290 291 292 290 286 286 289 284 285 286 286 286 286 283 277 274 277 284 284 285 284 285 287 288 288
288 277 294 294 277 268 277 277 285 284 288 286 286 284 282 285 284 283 281 287 291 291 289 291 287 282 284 286 288 289 286 286 280 279 281 280 278 285 287 286 285 285 286 287 288
281 283 292 290 270 266 270 277 284 282 283 283 283 284 285 285 282 284 284 291 290 290 288 289 285 278 281 285 288 286 287 288 286 283 279 277 276 284 285 285 286 285 285 287 287
283 274 279 280 278 276 267 270 274 284 283 285 283 285 284 283 286 283 284 289 290 288 291 291 282 282 277 278 283 283 285 286 285 277 279 279 278 279 282 283 284 285 285 286 286
282 274 279 270 273 275 276 271 269 273 282 283 281 281 281 280 281 280 285 287 289 290 288 286 277 279 279 279 284 285 286 287 283 282 279 281 279 281 283 284 284 285 284 285 285
280 278 280 279 280 277 279 277 276 276 280 278 279 281 282 279 280 279 281 283 283 288 286 287 279 277 276 279 282 281 284 284 286 285 280 280 279 283 283 283 282 284 284 284 284
284 285 282 279 279 276 275 279 281 282 283 283 281 280 280 280 282 283 284 284 283 282 282 282 279 276 275 274 274 279 277 281 282 283 281 279 283 285 281 283 283 283 284 284 284
Wind_Speed
4 2 4 6 7 7 8 10 11 10 7 7 9 10 11 12 14 3 3 3 3 9 10 7 4 7 4 3 2 3 4 2 1 3 2 2 2 2 4 7 5 7 4 6 8
4 2 2 5 5 5 6 9 11 11 9 8 10 11 12 12 3 5 1 3 5 7 3 5 5 8 5 3 3 5 3 3 2 2 0 1 1 5 5 4 6 10 9 8 5
5 3 1 2 4 5 5 7 9 10 10 9 10 11 11 8 3 3 2 4 3 3 1 1 2 1 2 2 2 3 5 3 1 4 0 1 2 2 9 3 6 11 13 4 5
5 5 2 1 2 3 5 7 8 10 11 9 9 10 11 2 6 2 4 5 6 2 1 2 2 1 3 3 3 2 2 2 4 4 3 2 2 5 3 2 6 11 11 6 6
5 4 4 2 2 3 5 7 8 8 10 10 8 8 5 2 6 2 5 5 4 4 1 2 3 2 4 1 3 2 1 2 3 5 2 6 4 5 4 6 13 12 7 9 7
8 6 4 4 3 3 5 6 7 7 9 9 7 6 1 3 3 4 3 3 4 4 2 1 2 2 4 2 2 1 3 2 3 2 3 5 2 4 2 4 11 10 11 10 12
10 8 6 5 4 3 5 6 6 7 8 9 7 2 2 10 1 4 4 3 3 3 3 1 4 3 3 1 3 1 3 3 0 2 2 1 5 6 6 8 15 15 14 14 11
11 9 7 6 5 4 4 6 6 7 8 8 6 1 5 4 5 7 4 5 5 4 3 5 3 2 2 3 1 3 5 4 5 1 2 3 2 7 12 15 11 10 10 13 14
11 9 8 6 5 5 5 7 8 8 8 7 2 1 7 7 3 4 5 5 4 2 4 3 2 2 1 5 4 1 4 4 3 6 1 4 3 9 8 17 9 9 9 11 11
11 10 8 6 5 4 7 8 6 5 3 1 3 1 5 2 3 2 4 5 4 2 1 2 2 2 1 6 14 13 14 5 5 5 16 14 7 8 11 15 9 8 8 11 12
12 11 9 7 5 3 4 3 4 2 2 6 4 3 2 8 5 3 3 3 2 3 6 4 4 13 9 4 6 9 17 11 2 5 13 7 10 8 7 11 11 10 8 10 11
13 12 9 7 5 1 2 2 1 1 4 7 7 5 4 2 3 4 4 6 5 5 4 4 12 4 6 5 5 11 15 9 7 8 9 6 10 9 10 5 5 6 7 8 7
13 11 9 6 3 3 3 2 1 0 1 3 3 4 3 4 4 5 8 3 4 7 9 5 2 9 7 6 9 5 13 7 10 9 7 10 3 1 5 6 7 7 6 8 7
13 10 8 5 3 1 2 2 2 2 5 4 2 5 2 3 6 7 6 7 4 11 6 5 5 15 7 12 11 11 6 12 18 16 6 11 4 7 3 5 5 5 6 7 7
13 10 8 2 3 3 1 4 2 5 5 4 2 1 1 6 3 5 4 2 5 5 6 6 5 7 11 11 8 5 9 12 9 4 9 11 3 2 14 8 8 6 7 7 6
13 10 7 3 3 1 4 3 4 9 6 4 3 2 1 3 4 5 3 2 2 4 3 7 2 7 7 5 7 9 11 10 4 3 5 13 8 6 11 12 11 8 8 8 7
12 10 4 2 2 2 2 4 7 5 4 7 3 5 6 5 4 1 2 9 6 6 4 5 4 2 4 8 8 9 17 3 5 5 5 10 5 3 8 15 15 14 10 7 6
15 12 6 2 3 2 2 7 5 5 5 2 2 9 5 7 5 3 3 8 7 1 4 6 8 7 4 3 10 16 6 6 8 7 4 3 6 3 2 8 11 10 10 8 7
8 3 4 4 5 2 5 4 8 4 2 5 9 2 3 1 1 4 5 3 2 9 3 6 4 1 1 2 9 6 6 3 7 4 3 5 2 6 4 8 11 11 10 8 7
3 3 1 5 3 5 6 3 2 1 4 2 3 1 3 2 2 5 5 1 3 1 2 4 3 1 1 2 1 5 9 4 2 7 4 2 3 4 11 13 11 11 11 8 7
4 4 3 4 4 6 3 3 3 4 4 3 2 4 4 3 3 3 2 1 1 4 4 3 1 1 2 1 7 4 5 5 4 1 5 5 6 6 19 17 16 12 11 11 9
3 3 1 4 5 1 2 4 2 3 3 3 2 2 3 5 3 3 3 1 3 1 4 3 2 4 2 1 2 1 5 5 5 3 2 1 4 5 14 14 13 11 10 8 9
3 2 2 5 3 2 5 3 2 2 3 2 3 3 2 4 2 4 3 2 3 2 1 3 3 3 7 3 4 3 1 4 5 4 5 5 3 5 11 13 12 12 9 9 8
4 2 5 5 0 6 3 2 4 4 4 3 3 2 3 2 4 3 2 3 3 2 6 3 2 1 1 1 3 6 4 3 5 4 4 3 6 5 13 15 11 9 9 8 8
3 2 4 1 4 1 3 3 2 4 2 5 2 6 4 3 3 4 1 3 5 3 2 2 4 3 4 5 0 3 7 5 4 4 5 7 11 17 18 17 14 10 8 9 8
5 5 3 2 2 3 1 1 3 5 2 4 3 7 7 3 5 3 4 2 0 6 2 2 3 2 7 10 5 5 3 5 7 4 6 7 1 7 6 8 8 11 11 10 8
2 2 5 2 1 3 3 4 2 2 1 4 2 1 6 2 2 5 3 3 1 1 2 2 4 3 2 4 4 4 4 1 4 2 8 6 7 14 7 12 13 10 9 10 9
Wind_Direction
315 339 2 0 349 344 346 345 349 337 321 325 329 331 330 333 321 301 225 300 313 310 309 309 348 345 349 309 265 92 63 148 175 197 258 18 104 44 16 79 51 358 87 135 128
306 285 4 5 359 360 347 345 348 348 333 328 326 325 328 334 304 271 347 298 298 320 356 20 347 350 345 297 298 99 122 201 218 213 175 223 11 137 84 65 45 76 63 66 87
285 250 310 7 351 345 342 331 335 342 338 333 326 321 325 331 302 236 217 269 315 302 225 288 277 265 308 321 259 160 167 251 274 217 329 146 72 15 130 84 187 165 145 108 108
268 281 267 302 341 319 320 333 328 332 334 328 319 321 319 294 217 213 228 310 324 280 213 239 171 242 186 238 283 186 192 217 272 324 48 21 54 68 59 215 148 144 136 121 136
224 256 265 260 287 309 311 318 320 327 330 324 320 328 337 244 255 239 275 329 341 337 206 185 170 176 201 248 331 148 221 30 36 93 86 71 51 129 78 100 104 117 122 136 140
221 206 234 235 238 299 310 309 314 327 325 327 331 338 318 232 258 186 263 351 1 336 340 241 174 168 260 218 156 200 185 186 349 49 52 112 108 67 347 111 104 104 79 66 63
213 204 203 228 236 268 297 322 302 314 322 324 328 331 300 238 319 9 30 340 296 320 328 302 301 201 190 176 201 144 95 83 145 0 50 284 43 51 10 77 92 88 86 81 69
206 190 191 212 239 259 300 305 306 294 316 310 318 343 249 261 266 288 296 312 288 263 249 282 296 131 177 317 148 126 71 127 325 126 343 91 107 332 331 105 83 78 79 76 62
196 182 187 202 223 260 292 290 300 288 297 296 325 136 265 309 206 245 175 235 303 252 271 297 56 193 116 154 108 118 160 148 102 12 274 62 71 342 25 103 78 76 67 72 63
181 177 183 188 214 264 291 291 289 328 312 268 258 283 279 292 259 232 210 210 261 166 212 145 79 168 188 161 194 184 192 200 123 353 83 77 56 21 33 80 77 67 66 64 61
170 171 176 183 195 273 344 13 38 12 337 194 204 255 350 297 285 246 175 136 249 165 172 199 159 208 194 158 124 147 178 204 180 103 70 70 78 53 26 52 67 66 63 65 54
161 165 168 180 175 258 73 57 77 165 308 246 240 265 267 281 301 268 135 172 183 179 171 155 226 187 166 219 174 166 176 168 118 127 84 62 71 58 48 48 59 85 71 71 62
153 152 159 174 128 67 95 80 232 333 239 290 198 232 220 188 240 254 157 193 195 174 199 190 245 170 185 185 206 196 177 174 139 131 75 119 320 57 69 62 73 60 70 63 65
134 141 147 136 59 146 59 310 312 77 54 280 242 275 216 191 255 215 207 162 250 196 162 239 263 185 180 205 197 201 164 143 142 155 173 172 180 189 154 98 71 67 71 68 69
127 129 129 130 155 79 265 327 342 56 35 272 239 191 332 193 320 242 173 210 211 196 156 213 196 176 198 193 175 194 105 131 147 126 118 184 151 205 155 177 154 136 102 87 73
120 122 114 49 47 243 285 354 48 46 267 330 289 303 166 263 285 311 154 144 180 250 243 203 214 178 200 156 187 142 90 59 83 43 211 183 177 195 185 179 157 145 130 126 112
98 88 67 60 183 273 337 50 44 121 314 307 334 322 318 192 251 282 146 187 178 183 204 180 196 251 174 117 153 136 143 132 178 189 240 161 166 216 199 167 159 154 144 128 117
97 87 46 43 316 307 66 49 86 241 246 312 293 287 241 179 221 144 136 184 230 101 146 165 201 184 188 203 176 167 166 157 185 170 158 173 212 276 137 126 128 134 132 124 115
100 40 62 326 313 34 70 64 202 234 297 319 309 300 279 279 184 165 170 158 268 190 219 187 223 276 174 135 163 174 189 59 102 32 108 138 8 359 70 114 132 140 135 133 128
78 65 26 323 10 44 73 187 261 293 303 234 278 243 291 276 228 151 172 132 188 63 252 192 159 309 148 127 24 181 128 102 62 158 173 143 207 205 183 172 161 156 150 144 136
57 57 276 28 58 49 107 201 270 249 239 259 302 296 304 292 270 106 90 102 264 199 259 155 2 284 151 163 166 144 178 131 103 305 134 137 244 201 181 180 169 162 156 154 149
97 69 326 83 50 32 128 189 270 286 258 265 261 266 270 288 213 116 144 76 178 302 194 107 151 188 156 102 284 273 158 144 123 183 49 118 239 319 175 166 155 158 159 154 148
106 200 11 96 131 309 309 298 241 302 283 298 286 237 271 280 291 111 136 109 70 61 213 107 228 139 135 32 335 162 131 115 90 77 171 148 250 27 132 144 159 154 154 151 147
88 53 334 47 226 129 135 309 325 310 282 318 347 285 285 300 20 110 122 176 123 84 331 205 56 117 161 266 136 143 136 117 123 112 163 196 158 173 160 159 157 156 153 153 155
49 225 179 255 325 93 118 151 19 346 315 5 58 357 283 20 11 26 11 102 152 153 13 147 103 98 83 325 36 124 149 145 96 148 149 190 175 191 177 163 163 158 150 146 155
137 130 45 152 262 98 44 290 171 294 360 325 63 358 42 75 18 14 337 17 242 196 295 6 118 83 36 9 43 77 107 130 118 119 83 122 278 129 129 125 144 158 157 161 162
251 58 102 290 234 79 207 185 189 193 152 69 292 103 46 28 335 287 332 344 356 341 87 351 117 54 42 352 23 105 247 117 146 149 146 168 203 153 157 170 170 165 163 169 170